Location: Beuerbach
(48.1459°N, 10.9174°E)
Time: 01:43:51
(UTC+00:00)

Meteor 1-21 - Pass Details

Date: 07 August 2024
Orbit: 845 x 885 km, 81.2° (Epoch: 09 September)

Event Time Altitude Azimuth Distance (km) Brightness Sun altitude
Rises 23:02:36 0° 359° (N) 3,418 8.7 -25.6°
Reaches altitude 10° 23:06:03 10° 21° (NNE) 2,478 7.5 -25.7°
Maximum altitude 23:09:27 16° 59° (ENE) 2,071 6.5 -25.7°
Drops below altitude 10° 23:12:51 10° 96° (E) 2,474 6.5 -25.8°
Enters shadow 23:13:07 - 99° (E) 2,535 6.6 -25.8°
